Location: Barzy
(49.0859°N, 3.5536°E)
Time: 04:55:37
(UTC+00:00)

Daily predictions for brighter satellites

Satellite Brightness Start Highest point End
(mag) Time Altitude Azimuth Time Altitude Azimuth Time Altitude Azimuth
SL-16 R/B 4.3 00:17:11 24° ENE 00:17:51 25° NE 00:22:45 10° N
Cosmos 2082 Rocket 4.0 00:12:42 10° NNW 00:15:19 26° N 00:15:19 26° N
Cosmos 2278 Rocket 4.0 00:34:23 26° NE 00:34:23 26° NE 00:36:49 10° NE
ATLAS 2AS CENTAUR R/B 4.1 00:35:15 32° NW 00:36:59 35° NNW 00:43:30 10° NE
Cosmos 1943 Rocket 4.2 00:45:02 21° ENE 00:45:02 21° ENE 00:47:18 10° NE
CZ-2D R/B 3.9 00:56:11 10° NNE 00:58:54 26° NE 00:58:54 26° NE
Resurs 1-4 Rocket 3.7 01:04:57 10° NNE 01:07:57 31° NE 01:07:57 31° NE
BREEZE-M DEB (TANK) 4.1 01:26:05 59° E 01:26:05 59° E 01:38:07 10° E
IDEFIX/ARIANE 42P 3.9 01:25:39 10° NNE 01:28:56 35° NE 01:28:56 35° NE
ATLAS 5 CENTAUR R/B 4.2 01:36:11 14° NE 01:36:11 14° NE 01:36:54 10° NE
Lacrosse 4 Rocket 4.0 01:41:59 18° N 01:41:59 18° N 01:43:20 10° NNE
Cosmos 2369 Rocket 3.5 01:51:59 31° E 01:51:59 31° E 01:56:30 10° NE
Cosmos 1745 Rocket 4.3 01:54:52 58° E 01:54:52 58° E 02:00:44 10° NNE
NPP 4.3 01:53:43 10° NNE 01:57:42 51° N 01:57:42 51° N
SL-16 R/B 2.9 02:02:16 55° NW 02:02:16 55° NW 02:07:09 10° NNW
SeaSat 1 3.3 02:05:02 10° NE 02:08:55 46° ENE 02:08:55 46° ENE
Cosmos 2278 Rocket 3.5 02:16:12 29° NW 02:16:12 29° NW 02:20:40 10° NNE
ADEOS II 2.5 02:10:31 10° NNE 02:14:47 60° N 02:14:47 60° N
Cosmos 1656 Rocket 4.1 02:21:22 51° ESE 02:21:22 51° ESE 02:26:36 10° NE
MSX 3.8 02:16:01 10° NNE 02:21:27 78° NNW 02:21:27 78° NNW
CZ-2C R/B 3.9 02:16:54 10° SE 02:22:05 40° ENE 02:27:13 10° N
Cosmos 773 Rocket 4.4 02:23:13 59° N 02:23:13 59° N 02:27:35 10° NNE
ALOS 3.6 02:18:12 10° NNE 02:22:25 33° E 02:22:45 33° ESE
Cosmos 1943 Rocket 2.7 02:26:32 50° NNW 02:26:32 50° NNW 02:31:28 10° NNE
Thor Agena Rocket 3.9 02:22:36 10° NNE 02:26:40 55° N 02:26:40 55° N
Cosmos 1346 Rocket 4.4 02:30:00 32° NNE 02:30:00 32° NNE 02:32:13 10° NNE
Cosmos 158 Rocket 4.3 02:32:00 55° N 02:32:00 55° N 02:35:58 10° NNE
Lacrosse 5 2.2 02:32:48 62° E 02:32:48 62° E 02:37:11 10° ENE
Meteor 1-25 Rocket 4.5 02:29:24 10° N 02:35:04 66° ENE 02:36:55 42° SE
ATLAS CENTAUR R/B 2.4 02:36:08 46° E 02:36:08 46° E 02:39:36 10° NE
Cosmos 1812 4.3 02:38:17 32° ENE 02:38:17 32° ENE 02:41:08 10° NNE
CZ-2D R/B 3.1 02:36:18 10° N 02:40:13 34° NW 02:40:13 34° NW
Cosmos 1242 Rocket 4.4 02:38:58 10° N 02:41:44 28° ENE 02:41:44 28° ENE
Cosmos 921 Rocket 3.5 02:43:20 61° ENE 02:43:20 61° ENE 02:47:23 10° NNE
Cosmos 2263 4.5 02:47:33 52° SSE 02:48:39 63° ESE 02:54:20 10° NNE
Resurs 1-4 Rocket 3.3 02:45:06 10° N 02:49:02 30° NW 02:49:02 30° NW
Cosmos 2297 3.7 02:50:41 62° WNW 02:50:58 63° WNW 02:56:41 10° NNE
Helios 1A 3.9 02:52:33 27° SE 02:54:26 47° ENE 02:58:25 10° N
ERS-2 4.0 02:52:28 10° N 02:53:53 22° N 02:53:53 22° N
Cosmos 1538 Rocket 4.1 02:55:01 62° S 02:55:51 75° ESE 03:01:14 10° NNE
Cosmos 44 3.5 02:56:30 55° SE 02:56:34 55° ESE 03:01:07 10° NE
IRS-1D 3.5 02:52:52 10° NNE 02:57:50 74° ESE 02:58:44 58° SSE
Cosmos 1782 3.4 02:58:18 51° E 02:58:19 51° E 03:02:08 10° NNE
NOSS 3-3 (A) 4.3 02:58:10 40° S 02:59:49 53° ESE 03:06:02 10° NE
NOSS 3-3 (C) 4.3 02:58:16 40° S 02:59:56 53° ESE 03:06:08 10° NE
Cosmos 1933 3.8 02:59:58 57° ESE 03:00:04 57° E 03:04:03 10° NNE
Cosmos 1766 Rocket 3.7 02:59:15 10° NNW 03:03:11 66° NW 03:03:11 66° NW
Cosmos 1867 3.7 02:58:50 10° NW 03:04:19 73° NE 03:09:46 10° SE
USA 40 PKM 4.5 03:09:13 64° N 03:09:13 64° N 03:13:09 10° NE
IDEFIX/ARIANE 42P 3.7 03:05:38 10° N 03:09:43 28° NW 03:09:43 28° NW
CZ-2C R/B 2.8 03:07:42 10° NNE 03:12:25 59° ESE 03:14:43 30° S
ATLAS 5 CENTAUR R/B 2.7 03:17:29 27° NW 03:17:37 27° NNW 03:21:19 10° NNE
Cosmos 2285 Rocket 4.2 03:20:11 42° WSW 03:21:56 55° WNW 03:28:08 10° NNE
Timation 1 Rocket 4.3 03:20:03 10° NNW 03:26:07 87° ENE 03:32:07 10° SSE
GEOS 3 Rocket 3.5 03:20:58 10° SSE 03:26:10 72° SW 03:31:29 10° NW
CBERS-1 4.1 03:23:25 10° NNE 03:28:35 75° ESE 03:31:46 24° S
ARGOS Delta rocket 3.8 03:29:54 49° W 03:29:54 49° W 03:34:00 10° NNW
Meteor 1-26 Rocket 4.2 03:29:51 21° S 03:33:43 82° E 03:39:29 10° NNE
Cosmos 2221 2.5 03:33:37 52° WSW 03:34:17 59° WNW 03:38:37 10° N
Cosmos 2369 Rocket 2.5 03:33:46 37° W 03:35:26 49° NW 03:40:53 10° NNE
METEOR-M 4.1 03:32:52 10° NNE 03:38:15 86° ESE 03:42:02 20° SSW
Cosmos 1833 4.4 03:33:26 10° NW 03:38:55 48° WSW 03:44:23 10° S
Cosmos 2297 Rocket 4.0 03:34:18 10° NNW 03:39:24 32° NE 03:44:27 10° ESE
PLATFORM 4.4 03:38:10 26° NW 03:40:07 79° SW 03:43:49 10° SSE
SL-16 R/B 4.3 03:47:21 13° WNW 03:47:21 13° WNW 03:48:44 10° NW
Cosmos 2184 Rocket 3.9 03:39:51 11° S 03:45:54 89° E 03:52:07 10° N
Cosmos 2181 Rocket 4.2 03:40:24 10° NNW 03:46:34 51° W 03:52:31 11° SSW
SeaSat 1 3.5 03:42:52 10° NNE 03:47:09 30° NW 03:48:40 25° WNW
RUBIN 8/PSLV 4.5 03:43:00 10° NNE 03:47:24 88° WNW 03:50:03 23° SSW
Helios 1B rocket 4.3 03:45:49 10° NE 03:49:20 29° E 03:52:49 10° SSE
PAYLOAD A 4.0 03:44:29 10° N 03:49:53 73° WNW 03:53:28 21° SSW
Cosmos 1484 Rocket 3.4 03:46:31 10° NNE 03:50:11 52° E 03:53:52 10° S
BREEZE-M DEB (TANK) 3.4 03:47:29 26° WSW 03:51:27 78° S 03:54:26 10° E
ADEOS II 3.8 03:51:32 10° NNW 03:54:44 17° NW 03:55:42 16° WNW
Cosmos 2227 Rocket 4.3 03:50:35 10° NNW 03:55:25 28° NE 04:00:15 10° ESE
Okean 3 Rocket 4.2 03:51:50 10° NNW 03:55:46 33° W 03:56:17 32° WSW
FENGYUN 3A 4.4 03:52:38 10° N 03:57:29 34° WNW 03:59:32 25° WSW
Cosmos 1408 Rocket 3.6 03:54:36 10° NNW 03:58:59 55° W 04:03:17 10° S
USA 281 3.6 03:52:29 10° SE 03:58:59 68° ENE 04:05:31 10° NNW
ALOS 3.0 03:55:34 10° N 03:59:44 33° WNW 04:01:10 27° W
Envisat 3.0 03:54:57 10° NNE 04:00:05 83° ESE 04:05:10 10° SSW
YAOGAN 6 2.4 03:57:12 10° NNE 04:00:44 85° WNW 04:03:06 20° SSW
CZ-2C R/B 2.8 03:57:32 10° NNE 04:02:18 78° WNW 04:06:48 12° SSW
CZ-2C R/B 3.2 03:58:08 15° SSW 04:02:22 37° W 04:07:31 10° NNW
Cosmos 1461 4.5 03:59:33 10° S 04:03:32 35° ESE 04:07:41 10° NE
SAR-Lupe-2 3.6 04:02:11 10° NNE 04:05:47 78° ESE 04:09:14 11° S
Meteor 1-14 Rocket 4.1 04:00:25 10° NNW 04:05:58 78° W 04:11:31 10° S
H-2A R/B 3.9 04:03:00 10° NNE 04:06:28 41° E 04:09:52 10° S
Cosmos 2154 Rocket 4.0 04:01:45 10° S 04:08:03 83° W 04:14:22 10° N
Sich 1 3.1 04:05:40 10° N 04:10:07 82° E 04:14:32 10° SSE
NOSS 2-1 (E) 4.4 04:06:46 10° NW 04:10:52 60° NE 04:16:37 10° SE
Cosmos 1943 Rocket 4.2 04:08:02 10° WNW 04:11:04 15° NNW 04:14:10 10° N
IRS-P3 4.3 04:06:10 10° NNE 04:11:31 74° ESE 04:16:50 10° S
Cosmos 1743 Rocket 3.5 04:07:24 10° NNW 04:11:51 71° W 04:16:17 10° S
Cosmos 1812 4.1 04:13:02 20° WNW 04:13:15 20° WNW 04:16:05 10° NNW
ATLAS CENTAUR R/B 2.7 04:11:51 20° W 04:13:59 30° NW 04:17:47 10° NNE
SL-27 R/B 2.0 04:11:04 10° NNW 04:14:16 74° WSW 04:17:26 10° SSE
Lacrosse 5 2.7 04:11:59 18° W 04:15:24 42° NNW 04:20:15 10° NE
Cosmos 1242 Rocket 4.1 04:13:29 10° NW 04:15:04 18° WNW 04:15:04 18° WNW
Cosmos 1515 3.6 04:14:06 10° S 04:17:49 83° E 04:21:32 10° N
Nadezhda 3 Rocket 4.0 04:12:02 10° NNW 04:18:15 66° W 04:24:29 10° S
Meteor 2-6 Rocket 4.4 04:12:24 10° S 04:18:21 88° W 04:24:21 10° NNE
Genesis I 3.7 04:16:18 13° SSW 04:19:42 59° SE 04:23:33 10° NE
Cosmos 807 4.4 04:18:53 25° SW 04:20:09 42° WNW 04:23:03 10° N
ATLAS 2AS CENTAUR R/B 4.1 04:16:25 10° NW 04:23:02 38° NNE 04:29:17 10° E
Cosmos 923 Rocket 4.3 04:19:15 17° SW 04:23:05 49° WNW 04:28:10 10° NNE
ERS-1 4.5 04:18:43 10° NNE 04:23:45 88° ESE 04:28:43 10° SSW
Orbus 7S? 3.7 04:17:18 10° NW 04:24:32 80° SW 04:27:57 10° SE
Cosmos 1842 Rocket 4.5 04:23:45 18° WSW 04:26:08 30° WNW 04:30:00 10° N
SL-08 R/B 3.4 04:21:35 10° SSE 04:26:28 88° ENE 04:31:17 10° NNW
SL-19 R/B 4.2 04:23:17 10° N 04:28:29 60° WNW 04:33:35 10° SSW
Cosmos 1610 Rocket 4.4 04:22:50 10° SSW 04:28:56 69° WNW 04:35:07 10° N
GP-B 3.1 04:25:11 10° N 04:29:39 86° E 04:34:04 10° S
COSMOS 2455 4.2 04:24:30 10° S 04:30:02 40° ESE 04:35:37 10° NE
Helios 1A 4.3 04:28:59 17° WSW 04:30:05 19° W 04:33:04 10° NW
Cosmos 1680 Rocket 3.7 04:27:19 12° SW 04:32:08 55° WNW 04:37:21 10° NNE
Cosmos 1782 4.5 04:33:41 14° W 04:34:43 16° WNW 04:37:10 10° NNW
Cosmos 2074 Rocket 4.5 04:30:15 10° SW 04:36:09 41° WNW 04:42:06 10° N
Cosmos 2341 Rocket 4.3 04:30:58 10° S 04:37:19 76° E 04:43:42 10° NNE
Cosmos 44 4.3 04:34:53 14° W 04:38:04 29° NW 04:42:14 10° NNE
BREEZE-M DEB (TANK) 3.6 04:39:15 10° SSW 04:39:15 10° SSW 04:39:34 10° SSW
ARIANE 5 R/B 2.6 04:35:45 10° N 04:40:51 63° WNW 04:45:59 10° SSW
H-2A R/B 3.9 04:37:02 10° NNE 04:41:27 32° E 04:45:49 10° SSE
USA 276 2.8 04:39:12 13° SW 04:41:30 40° SSE 04:44:16 10° E
NOSS 3-4 (A) 3.9 04:34:51 10° NW 04:41:40 61° SW 04:49:22 10° SSE
NOSS 3-4 (C) 3.9 04:34:57 10° NW 04:41:46 61° SW 04:49:31 10° SSE
Cosmos 1371 Rocket 4.4 04:37:16 10° NW 04:42:02 38° WSW 04:46:46 10° S
CZ-2D R/B 3.5 04:37:46 10° N 04:42:04 71° WNW 04:46:15 10° SSW
Cosmos 2112 Rocket 4.2 04:37:04 10° SW 04:42:10 53° WNW 04:47:22 10° NNE
Cosmos 1656 4.3 04:37:51 10° S 04:43:08 57° ESE 04:48:31 10° NE
Cosmos 1743 2.6 04:40:13 10° NNW 04:43:57 66° W 04:47:38 10° S
Cosmos 1500 Rocket 4.4 04:41:54 10° NNW 04:45:33 28° W 04:49:13 10° SSW
COSMO-SKYMED 1 2.8 04:44:07 10° SSE 04:48:27 78° ENE 04:52:49 10° N
Cosmos 1378 3.7 04:45:45 10° S 04:49:16 58° E 04:52:48 10° NNE
Cosmos 2056 Rocket 4.1 04:45:22 10° NW 04:50:02 35° WSW 04:54:44 10° SSW
CZ-2C R/B 3.7 04:46:42 10° NNW 04:50:15 21° WNW 04:53:53 10° WSW
Meteor 1-27 Rocket 4.1 04:44:41 10° S 04:50:28 73° E 04:56:10 10° NNE
BREEZE-M DEB (TANK) 4.1 04:41:34 11° WSW 04:50:51 85° S 04:54:06 10° E
Spot 4 Rocket 4.2 04:46:10 10° NNE 04:51:20 79° ESE 04:56:29 10° SSW
Cosmos 1805 Rocket 4.2 04:48:08 10° NNW 04:52:08 33° W 04:56:07 10° SSW
BREEZE-M DEB (TANK) 2.3 04:50:28 10° W 04:54:20 77° SSW 04:56:34 10° ESE
Cosmos 1536 2.8 04:56:31 10° NNW 05:00:25 58° W 05:04:18 10° S
Cosmos 2366 rocket 4.2 04:54:31 10° S 05:00:45 84° E 05:07:04 10° N
Cosmos 1607 4.2 04:55:06 10° SSW 05:01:13 76° SE 05:07:27 10° NE
NOSS 2-1 (C) 4.0 04:58:36 10° NW 05:02:52 58° SW 05:08:49 10° SSE
BREEZE-M R/B 3.2 04:56:21 10° W 05:02:56 85° S 05:05:17 10° E
ATLAS 5 CENTAUR R/B 3.8 05:01:15 10° NW 05:03:31 14° N 05:05:58 10° NNE
Cosmos 1437 Rocket 2.6 05:00:19 10° NNW 05:04:12 75° W 05:07:59 10° S
Cosmos 1328 Rocket 3.6 05:01:02 10° S 05:05:21 83° E 05:09:41 10° N
SJ-12 4.0 05:02:11 10° NNE 05:06:14 83° ESE 05:10:14 10° SSW
Cosmos 1697 Rocket 4.2 05:01:08 10° S 05:06:20 40° ESE 05:11:34 10° NE
NOSS 2-1 (D) 4.1 05:03:14 10° NW 05:07:22 52° SW 05:13:04 10° SSE
Cosmos 1110 Rocket 4.1 05:04:23 10° NNW 05:09:35 89° NE 05:14:47 10° SSE
Meteor 1-11 Rocket 3.9 05:06:00 10° NNW 05:11:23 50° W 05:16:41 10° SSW
Meteor 2-9 Rocket 4.2 05:06:26 10° NNW 05:11:47 90° E 05:17:11 10° S
